Location: Unspecified
(37.3230°N, 0.0000°E)
Time: 13:51:46
(UTC+00:00)

SL-8 R/B - Visible Passes

Search period start: 04 April 2026 00:00
Search period end: 14 April 2026 00:00
Orbit: 970 x 1007 km, 83.0° (Epoch: 29 March)

Date Brightness Start Highest point End Pass type
(mag) Time Alt. Az. Time Alt. Az. Time Alt. Az.
5 Apr 6.1 18:49:15 10° NNW 18:55:13 42° W 19:01:08 10° SSW visible
6 Apr 7.3 19:19:33 10° NW 19:24:08 21° W 19:28:42 10° SW visible
9 Apr 7.4 19:01:56 10° NW 19:06:20 20° W 19:10:45 10° SW visible
10 Apr 7.5 05:01:13 10° SE 05:05:24 19° E 05:09:38 10° NE visible
13 Apr 7.3 04:43:14 10° SE 04:47:37 20° E 04:52:02 10° NE visible
